[[{"header":{"parameterUnit":"m.s-1","parameterCategory":1,"la1":30.2991,"la2":30.254,"lo1":-89.0895,"lo2":-89.0444,"dy":0.0017,"dx":0.0017,"nx":28,"ny":28,"refTime":"2024-10-19T03:00:00:Z","depth":0,"parameterNumber":2,"parameterNumberName":"U-component_of_WINDS"},"data":[0,0,0,0,0,0,0,0,0,0,0,0,0,0,0,0,0,0,0,0,0,0,0,0,0,0,0,0,0,0,0,0,0,0,0,0,0,0,0,0,0,0,0,0,0,0,0,0,0,0,0,0,0,0,0,0,0,0,-3.7556,-3.7557,0,-3.7612,-3.7612,-3.7613,-3.7473,-3.7468,-3.7464,-3.746,-3.7521,-3.7527,-3.7533,0,0,0,0,0,0,0,0,0,0,0,0,0,-3.7332,-3.7337,-3.7556,-3.7557,-3.7557,-3.7612,-3.7612,-3.7613,-3.7474,-3.7468,-3.7463,-3.7458,-3.7519,-3.7526,-3.7533,0,0,0,0,0,0,0,0,0,0,0,0,0,-3.7413,-3.7338,-3.7556,-3.7494,-3.7489,-3.7611,-3.7612,-3.7613,-3.7475,-3.7468,-3.7461,-3.7455,-3.7517,-3.7526,-3.7534,-3.772,0,0,-3.7561,-3.7564,0,0,0,0,0,0,0,0,-3.7408,-3.7421,-3.7503,-3.7499,-3.7493,-3.7528,-3.7556,-3.7649,-3.7476,-3.748,-3.746,-3.7452,-3.7529,-3.7537,-3.7562,-3.7723,-3.7726,-3.7561,-3.7567,-3.757,-3.7573,0,0,0,0,0,0,0,-3.7403,-3.7418,-3.7578,-3.7504,-3.7498,-3.7465,-3.7469,-3.7573,-3.7542,-3.7479,-3.7469,-3.7478,-3.7526,-3.7554,-3.7562,-3.7727,-3.7561,-3.7569,-3.7574,-3.7577,-3.8044,-3.8051,0,0,0,0,0,0,-3.7405,-3.7414,-3.7576,-3.758,-3.7433,-3.7474,-3.7479,-3.7524,-3.754,-3.7536,-3.7483,-3.7471,-3.7542,-3.7552,-3.7564,-3.7784,-3.757,-3.7578,-3.7583,-3.8037,-3.8046,-3.8053,0,0,0,0,0,0,-3.74,-3.7421,-3.7574,-3.7494,-3.7511,-3.7485,-3.7537,-3.7529,-3.7556,-3.7543,-3.7537,-3.7518,-3.7537,-3.7552,-3.7682,-3.7784,-3.7582,-3.759,-3.8028,-3.804,-3.805,-3.8225,0,0,0,0,0,0,-3.7395,-3.742,-3.749,-3.7497,-3.7516,-3.7691,-3.7543,-3.7534,-3.7571,-3.7556,-3.7574,-3.757,-3.7533,-3.767,-3.7691,-3.7792,-3.7597,-3.8019,-3.8033,-3.8046,-3.821,-3.8241,-3.8267,0,0,0,0,0,-3.7387,-3.7538,-3.7494,-3.7514,-3.7603,-3.7697,-3.7708,-3.7662,-3.758,-3.7651,-3.7642,-3.757,-3.7769,-3.7685,-3.7707,-3.7813,-3.8013,-3.8029,-3.8045,-3.8198,-3.8235,-3.8266,0,0,0,0,0,0,-3.7545,-3.7538,-3.7489,-3.7646,-3.7673,-3.7673,-3.7761,-3.7702,-3.7754,-3.7738,-3.7679,-3.7684,-3.7826,-3.7831,-3.7738,-3.7993,-3.7877,-3.7898,-3.7985,-3.8021,-3.8048,-3.8045,-3.7604,0,0,0,0,0,-3.7598,-3.7674,-3.7664,-3.7804,-3.782,-3.7789,-3.7828,-3.7789,-3.7815,-3.7827,-3.7827,-3.7857,-3.7926,-3.7973,-3.8035,-3.8209,-3.8212,-3.8293,-3.8321,-3.8344,-3.8364,-3.8458,-3.8494,-3.8107,-3.8107,-3.8106,0,0,-3.7709,-3.7714,-3.7766,-3.7836,-3.7852,-3.7934,-3.7799,-3.7891,-3.7952,-3.7841,-3.7965,-3.7966,-3.7995,-3.8148,-3.8216,-3.8157,-3.8471,-3.8365,-3.8383,-3.8391,-3.8478,-3.8515,-3.8548,-3.8118,-3.8116,-3.8114,0,0,-3.7953,-3.7964,-3.8082,-3.81,-3.8126,-3.8104,-3.8133,-3.8141,-3.8138,-3.826,-3.8179,-3.825,-3.837,-3.8394,-3.8422,-3.8674,-3.8611,-3.8696,-3.8845,-3.8937,-3.8967,-3.8994,-3.9086,-3.912,-3.8715,-3.8716,-3.8716,0,-3.8088,-3.8207,-3.815,-3.8248,-3.8282,-3.8183,-3.8303,-3.8324,-3.837,-3.8396,-3.8329,-3.8477,-3.849,-3.8648,-3.8709,-3.8734,-3.8766,-3.8695,-3.8967,-3.8994,-3.9018,-3.9105,-3.9139,-3.8726,-3.8725,-3.8724,-3.8723,0,-3.8373,-3.8456,-3.8548,-3.8594,-3.8637,-3.8746,-3.8707,-3.8758,-3.8715,-3.87,-3.8827,-3.8837,-3.8901,-3.8935,-3.8894,-3.9088,-3.9051,-3.8977,-3.8859,-3.9066,-3.9147,-3.918,-3.8741,-3.8738,-3.8734,-3.8732,0,0,-3.8721,-3.8732,-3.8768,-3.8787,-3.8807,-3.8872,-3.8975,-3.9036,-3.9082,-3.9116,-3.9203,-3.9306,-3.9237,-3.9269,-3.923,-3.931,-3.9511,-3.9226,-3.9225,-3.9281,-3.9727,-3.9786,-3.9825,-3.9467,-3.9473,-3.9478,-3.9726,0,-3.8964,-3.9142,-3.9093,-3.9271,-3.9349,-3.9255,-3.9345,-3.9368,-3.9357,-3.9422,-3.9409,-3.9484,-3.9386,-3.9405,-3.948,-3.9471,-3.9601,-3.9452,-3.9551,-3.9555,-3.955,-3.9867,-3.9929,-4.0162,-3.9757,-3.9762,-3.9766,0,-3.9272,-3.9317,-3.9503,-3.951,-3.954,-3.9623,-3.9675,-3.9737,-3.9761,-3.9747,-3.9782,-3.9727,-3.983,-3.9709,-3.9852,-3.9753,-3.9789,-3.9791,-3.9799,-3.9809,-3.9676,-3.9889,-4.0235,-4.0271,-3.9815,-3.9811,-3.9807,0,-3.9511,-3.9617,-3.9742,-3.9762,-3.9773,-3.9833,-3.9841,-3.9858,-3.9898,-3.9943,-3.9968,-4.0025,-4.0057,-4.0103,-4.0065,-3.998,-4.0216,-4.0091,-4.0209,-4.0211,-4.0266,-4.0264,-4.0626,-4.0285,-4.0284,-4.0284,-4.0283,0,-3.9789,-3.9907,-3.985,-3.9928,-4.0057,-3.9999,-4.013,-4.0126,-4.0142,-4.0219,-4.014,-4.0213,-4.0157,-4.0226,-4.0196,-4.032,-4.0335,-4.0328,-4.032,-4.0337,-4.0339,-4.0363,-4.0347,-4.0293,-4.0291,-4.0289,-4.0287,0,-4.008,-4.0046,-4.0176,-4.0175,-4.0177,-4.0273,-4.0273,-4.0345,-4.0326,-4.0424,-4.0443,-4.0415,-4.0492,-4.0457,-4.0538,-4.0518,-4.0679,-4.0647,-4.0671,-4.0664,-4.0785,-4.0776,-4.1179,-4.123,-4.0853,-4.0857,-4.086,0,-4.0261,-4.0349,-4.0357,-4.0402,-4.0414,-4.0487,-4.0526,-4.0473,-4.0517,-4.0551,-4.062,-4.0689,-4.0742,-4.0869,-4.0858,-4.0919,-4.089,-4.1027,-4.0899,-4.0914,-4.0896,-4.0892,-4.0902,-4.1054,-4.1059,-4.1062,-4.1065,0,-4.0588,-4.0566,-4.0625,-4.0679,-4.0727,-4.0767,-4.0801,-4.0842,-4.0789,-4.0843,-4.092,-4.0961,-4.1042,-4.1114,-4.1167,-4.1176,-4.1114,-4.1105,-4.1136,-4.1157,-4.1168,-4.1166,-4.0745,-4.1097,-4.1094,-4.1091,-4.1089,-4.1088,-4.0831,-4.0905,-4.0922,-4.0991,-4.101,-4.1042,-4.111,-4.1099,-4.1162,-4.1223,-4.1187,-4.1278,-4.1299,-4.1365,-4.1382,-4.1453,-4.1399,-4.1444,-4.1456,-4.1468,-4.1486,-4.1153,-4.1462,-4.1461,-4.146,-4.146,-4.1459,0,-4.1156,-4.1161,-4.1225,-4.1273,-4.1327,-4.1259,-4.1292,-4.1343,-4.1423,-4.1447,-4.15,-4.1589,-4.1657,-4.165,-4.1712,-4.177,-4.1743,-4.1789,-4.1786,-4.1789,-4.1529,-4.1497,-4.181,-4.181,-4.181,-4.181,-4.181,-4.181,-4.1331,-4.1454,-4.1434,-4.1566,-4.157,-4.1657,-4.1682,-4.1712,-4.1731,-4.1834,-4.1889,-4.1882,-4.1895,-4.1957,-4.2017,-4.2013,-4.2041,-4.2098,-4.2084,-4.1842,-4.1808,-4.1774,-4.1744,-4.2104,-4.2104,-4.2339,-4.2341,-4.2343]},{"header":{"parameterUnit":"m.s-1","parameterCategory":1,"la1":30.2991,"la2":30.254,"lo1":-89.0895,"lo2":-89.0444,"dy":0.0017,"dx":0.0017,"nx":28,"ny":28,"refTime":"2024-10-19T03:00:00:Z","depth":0,"parameterNumber":3,"parameterNumberName":"V-component_of_WINDS"},"data":[0,0,0,0,0,0,0,0,0,0,0,0,0,0,0,0,0,0,0,0,0,0,0,0,0,0,0,0,0,0,0,0,0,0,0,0,0,0,0,0,0,0,0,0,0,0,0,0,0,0,0,0,0,0,0,0,0,0,-3.2595,-3.2595,0,-3.2624,-3.2624,-3.2625,-3.2581,-3.2579,-3.2578,-3.2576,-3.2603,-3.2605,-3.2607,0,0,0,0,0,0,0,0,0,0,0,0,0,-3.2497,-3.2499,-3.2595,-3.2595,-3.2595,-3.2624,-3.2624,-3.2625,-3.2581,-3.2579,-3.2577,-3.2576,-3.2603,-3.2605,-3.2608,0,0,0,0,0,0,0,0,0,0,0,0,0,-3.2534,-3.25,-3.2595,-3.2577,-3.2576,-3.2624,-3.2624,-3.2625,-3.2582,-3.2579,-3.2577,-3.2575,-3.2602,-3.2605,-3.2608,-3.2674,0,0,-3.2618,-3.2619,0,0,0,0,0,0,0,0,-3.2532,-3.2538,-3.2579,-3.2578,-3.2577,-3.2597,-3.26,-3.2641,-3.2582,-3.2579,-3.2576,-3.2574,-3.2603,-3.2606,-3.2616,-3.2675,-3.2676,-3.2618,-3.262,-3.2621,-3.2622,0,0,0,0,0,0,0,-3.2529,-3.2536,-3.2606,-3.258,-3.2579,-3.2567,-3.2569,-3.2607,-3.2603,-3.2579,-3.2576,-3.258,-3.2602,-3.2613,-3.2616,-3.2676,-3.2618,-3.2621,-3.2623,-3.2624,-3.2789,-3.2791,0,0,0,0,0,0,-3.253,-3.2534,-3.2605,-3.2607,-3.2549,-3.257,-3.2573,-3.2593,-3.2603,-3.2602,-3.2582,-3.2578,-3.2609,-3.2613,-3.2617,-3.2693,-3.2621,-3.2624,-3.2626,-3.2786,-3.2789,-3.2792,0,0,0,0,0,0,-3.2528,-3.2536,-3.2604,-3.257,-3.2578,-3.2574,-3.2596,-3.2594,-3.2606,-3.2605,-3.2604,-3.2595,-3.2607,-3.2613,-3.266,-3.2694,-3.2626,-3.2629,-3.2783,-3.2787,-3.2791,-3.2847,0,0,0,0,0,0,-3.2525,-3.2536,-3.2562,-3.2571,-3.258,-3.2647,-3.2598,-3.2597,-3.2612,-3.2607,-3.2617,-3.2616,-3.2606,-3.2655,-3.2663,-3.2697,-3.2631,-3.278,-3.2785,-3.2789,-3.2842,-3.2852,-3.2861,0,0,0,0,0,-3.2522,-3.2576,-3.2563,-3.2572,-3.2612,-3.265,-3.2654,-3.2642,-3.2615,-3.264,-3.2639,-3.2616,-3.2689,-3.266,-3.2669,-3.2704,-3.2778,-3.2784,-3.2789,-3.2838,-3.285,-3.286,0,0,0,0,0,0,-3.257,-3.2577,-3.2563,-3.2622,-3.2636,-3.2642,-3.2673,-3.2656,-3.2676,-3.2671,-3.2654,-3.2656,-3.2707,-3.271,-3.2678,-3.2767,-3.2729,-3.2736,-3.2763,-3.2775,-3.2784,-3.2781,-3.2634,0,0,0,0,0,-3.2588,-3.2619,-3.2623,-3.2674,-3.2682,-3.2677,-3.2693,-3.2682,-3.2695,-3.27,-3.2703,-3.2716,-3.2741,-3.2758,-3.2782,-3.2843,-3.2843,-3.2871,-3.288,-3.2888,-3.2894,-3.2925,-3.2937,-3.281,-3.281,-3.281,0,0,-3.2624,-3.2632,-3.2652,-3.2684,-3.2694,-3.2725,-3.2682,-3.2717,-3.2739,-3.2705,-3.2749,-3.2752,-3.2765,-3.2819,-3.2843,-3.2823,-3.2929,-3.2895,-3.2901,-3.2903,-3.2932,-3.2944,-3.2954,-3.2814,-3.2813,-3.2812,0,0,-3.2706,-3.2716,-3.276,-3.277,-3.2785,-3.2781,-3.2791,-3.2801,-3.2801,-3.2846,-3.282,-3.2846,-3.2891,-3.2901,-3.2912,-3.2997,-3.2976,-3.3005,-3.3053,-3.3084,-3.3094,-3.3102,-3.3131,-3.3142,-3.3012,-3.3012,-3.3012,0,-3.2749,-3.2796,-3.2784,-3.282,-3.2834,-3.2806,-3.2849,-3.2859,-3.2881,-3.2891,-3.2869,-3.2924,-3.2931,-3.2986,-3.3007,-3.3017,-3.3027,-3.3003,-3.3093,-3.3102,-3.311,-3.3137,-3.3148,-3.3015,-3.3015,-3.3015,-3.3014,0,-3.2847,-3.288,-3.2914,-3.2936,-3.2954,-3.2993,-3.2985,-3.3005,-3.2993,-3.2991,-3.3036,-3.3043,-3.3067,-3.3079,-3.3068,-3.3132,-3.312,-3.3096,-3.3057,-3.3126,-3.3151,-3.3161,-3.302,-3.3019,-3.3018,-3.3017,0,0,-3.296,-3.2975,-3.2987,-3.2996,-3.301,-3.3035,-3.3073,-3.3097,-3.3113,-3.3129,-3.3159,-3.3198,-3.3176,-3.3188,-3.3177,-3.3204,-3.3269,-3.3177,-3.3177,-3.3192,-3.3339,-3.3355,-3.3367,-3.3256,-3.3258,-3.3259,-3.3337,0,-3.304,-3.3106,-3.3096,-3.3159,-3.3188,-3.3162,-3.3195,-3.3206,-3.3205,-3.3229,-3.3228,-3.3255,-3.3225,-3.3232,-3.3257,-3.3256,-3.3298,-3.325,-3.3282,-3.3283,-3.3278,-3.3381,-3.3398,-3.3471,-3.3347,-3.3349,-3.335,0,-3.3143,-3.3163,-3.3229,-3.3238,-3.325,-3.328,-3.33,-3.3324,-3.3336,-3.3333,-3.3347,-3.3331,-3.3367,-3.3329,-3.3378,-3.3345,-3.3358,-3.3359,-3.3362,-3.3362,-3.3319,-3.3383,-3.3494,-3.3505,-3.3366,-3.3364,-3.3363,0,-3.3216,-3.3259,-3.3304,-3.3313,-3.3325,-3.3346,-3.3352,-3.3362,-3.3377,-3.3395,-3.3404,-3.3426,-3.3438,-3.3454,-3.3444,-3.3418,-3.3494,-3.3455,-3.3491,-3.3491,-3.3507,-3.3506,-3.362,-3.3518,-3.3518,-3.3518,-3.3518,0,-3.3305,-3.3346,-3.3337,-3.3365,-3.341,-3.3397,-3.3441,-3.3444,-3.3453,-3.3479,-3.3458,-3.3483,-3.3469,-3.3493,-3.3485,-3.3525,-3.3531,-3.3529,-3.3526,-3.353,-3.353,-3.3536,-3.353,-3.3521,-3.352,-3.352,-3.3519,0,-3.3394,-3.3389,-3.3436,-3.3444,-3.3447,-3.3479,-3.3485,-3.351,-3.3508,-3.3541,-3.3549,-3.3545,-3.3571,-3.3563,-3.3592,-3.3587,-3.3637,-3.3629,-3.3634,-3.3631,-3.3667,-3.3663,-3.3788,-3.3803,-3.3693,-3.3694,-3.3695,0,-3.345,-3.3481,-3.3492,-3.3509,-3.3517,-3.3544,-3.3559,-3.3548,-3.3564,-3.358,-3.3603,-3.3628,-3.3647,-3.3691,-3.3689,-3.3711,-3.3702,-3.3744,-3.3704,-3.3707,-3.37,-3.3697,-3.37,-3.3751,-3.3752,-3.3754,-3.3754,0,-3.355,-3.3547,-3.357,-3.3593,-3.3612,-3.3629,-3.3644,-3.3658,-3.3648,-3.3667,-3.3695,-3.371,-3.3739,-3.3763,-3.3783,-3.3787,-3.3769,-3.3767,-3.3776,-3.3779,-3.378,-3.3778,-3.3653,-3.3764,-3.3763,-3.3762,-3.3762,-3.3761,-3.3623,-3.3649,-3.3661,-3.3687,-3.3697,-3.3712,-3.3735,-3.3736,-3.3759,-3.3783,-3.3775,-3.3805,-3.3816,-3.384,-3.3847,-3.387,-3.3854,-3.3868,-3.3871,-3.3874,-3.3878,-3.3778,-3.3874,-3.3874,-3.3874,-3.3873,-3.3873,0,-3.3721,-3.3727,-3.3752,-3.3773,-3.3794,-3.3776,-3.3791,-3.3809,-3.3837,-3.3849,-3.3868,-3.3899,-3.3923,-3.3924,-3.3945,-3.3964,-3.3955,-3.3969,-3.3967,-3.3968,-3.3892,-3.3881,-3.3976,-3.3976,-3.3975,-3.3975,-3.3975,-3.3975,-3.3773,-3.3816,-3.3814,-3.386,-3.3866,-3.3897,-3.3907,-3.3919,-3.3928,-3.3964,-3.3984,-3.3985,-3.3992,-3.4014,-3.4034,-3.4034,-3.4042,-3.4059,-3.4055,-3.3984,-3.3973,-3.3964,-3.3953,-3.4061,-3.4061,-3.4129,-3.4129,-3.413]}]]